Find Starlink 6028

NORAD ID: 56818 Int'l Des: 2023-078 Owner: SPXS Country: US Constellation: starlink operational
LEOCIRCULAR

現在のビュー

3D地球を読み込み中...

About Starlink 6028

Starlink 6028 (NORAD 56818) is a starlink constellation satellite (v1.5) launched May 31, 2023 by SPXS of US. It operates in LEO, CIRCULAR orbit with a mass of 305.00 kg.

Starlink 6028について

説明を読み込み中...

次回通過

Passes for default location (London). Set your location on the main map for personalized predictions.

高度履歴

Loading altitude history...

軌道要素

1 56818U 23078BD 26194.52577913 .00001589 00000-0 14094-3 0 9993
2 56818 70.0015 27.0012 0002685 269.4091 90.6760 14.98331983172228
Epoch: Jul 13, 2026 • Age: 14 hours

現在のステータス

高度 585.3 km
遠地点 / 近地点 N/A
速度 7.57 km/s
衛星直下点 -39.55°S, 105.42°W
打ち上げ日 May 31, 2023
運用期間 3.1 years
タイプ internet

技術仕様

分類 Payload
質量 305.00 kg
乾燥質量 290.00 kg
総質量 305.00 kg
長さ 0.20 m
直径 2.80 m
スパン 9.00 m
形状 Box + pan
製造者 SPXS
バスタイプ Starlink
フェーズステータス In Orbit
所有者/国 SPXS/US

Most Searched